Zurück zum Katalog

NOAA 16 DEB

AktivSSO
NORAD 41159·DEBRIS·🇺🇸 United States

Gestartet Sep 21, 2000 von Vandenberg Space Force Base

Loading…

Nächste Überflüge (nächste 24 Stunden)

TLE

AktuellSource: Space-Track

Epoche: Sep 13, 2026, 10:22 UTC

1 41159U 00055CS  26256.43237313  .00002055  00000-0  75618-3 0  9999
2 41159  98.6032 332.4685 0017499 276.8849  83.0345 14.33629437559458

Verfolge NOAA 16 DEB in Echtzeit mit AllMySat

Download on the App Store